STARLINK-35043, 65436

Orbit data source: Space-Track

STARLINK-35043, 65436 is a payload satellite owned by SpaceX/Seattle (US) in SSO that was launched on Wed, 03 Sep 2025 UTC via an FALCON 9 launch vehicle from the Air Force Western Test Range (AFWTR). Payload-class satellites include a variety of spacecraft equipped with specific instruments for various scientific and technological missions. These include communications satellites like Starlink; space stations such as the ISS; scientific satellites like the Hubble; Earth observation satellites from companies like Planet Labs, Umbra, and HawkEye 360; GPS; miniature CubeSats for education and research; and military/defense satellites.

Loading next visibility...
Identifier
65436, 2025-194C
Orbit
SSO
Country
Flag of USUS
Related business
Manufacturer
SpaceX/Seattle
Mission
Operational Commercial Communications
Bus & Motor
STARLINK V2MO, Unknown motor
Mass
575 kg wet, ~530 kg dry
Launch date (UTC)
2025-09-03 (10 months ago)
Launch vehicle
FALCON 9
Launch site
Air Force Western Test Range (AFWTR)
Object type
Payload
Rocket body
Debris
Shape & HBR
Box + 2 Pan, 17.7 m
Radar Cross Section
36.964 m², Large (>1 m²)

Expand to show TLE details & history
Last TLE update: 20 hours ago

TLE from 20 hours ago
0 STARLINK-35043
1 65436U 25194C   26171.03689770  .00017667  00000-0  12529-2 0  9990
2 65436  97.4604  25.0789 0002755  87.5588 272.5954 15.04819340 45072
Epoch: 2026-06-20T00:53Z
TLE epoch observation values (Epoch: 2026-06-20T00:53:07.961Z)
Latitude
-0.00002°
Longitude
103.53845°
Altitude
555.042 km
Speed
7.584 km/s
True Right ascension
01h 40m 18s
True Declination
0° 00' 00"
Sunlit
Object was in daylight at epoch
Visualization orbit readout
Latitude
Unknown
Longitude
Unknown
Altitude
Unknown
Speed
Unknown
Apparent Right ascension
Unknown
Apparent Declination
Unknown
Sunlit
N/A
Visualization observer readout
Local Sidereal Time
07:24:13
Azimuth
Unknown
Elevation
Unknown
Doppler factor
Unknown
Orbital elements
Apogee altitude
550.957 km
Perigee altitude
547.14 km
Semi-major axis
6,927.186 km
Eccentricity
0.00028
Inclination
97.4604°
RAAN
25.0789°
Arg. of periapsis
87.5588°
True anomaly
272.56386°
Mean anomaly
272.5954°
Eccentric anomaly
272.57963°
Mean motion
3.76451 °/min
Orbital period
95.63 mins
BSTAR
0.0012529
Loading maneuver chart data...
Computing Atmospheric mass density...
Loading historical data...
Loading historical data...
Loading historical data...
Loading historical data...
Loading historical data...
Loading historical data...
Loading historical data...

Documentation

Showing up to 5 results
|